Vertical_Velocity
1 -3 1 1 0 -2 -1 -1 -0 -1 -0 2 -1 -1 -1 -3 -2 6 3 -1 0 -0 0 -2 -1 -0 -1 -2 -0 -2 -3 -0 -3 -1 0 -0 1 -1 -2 -0 -2 -1 -1
-1 2 -1 -0 1 0 -1 -2 -2 -0 3 0 -2 -1 -0 -1 -2 1 -3 0 -0 0 -1 0 -1 -2 -1 -2 -1 -1 -2 -0 -2 -1 -1 -1 -1 -1 -0 -2 -2 -1 -0
-1 1 3 0 -0 0 0 -2 -3 -1 2 -0 1 -1 -1 -1 -2 -0 -2 -2 -3 -0 -1 -2 -1 -2 -1 -0 -2 -1 -1 -0 -1 -0 -2 -1 -2 -2 -1 -2 1 1 -1
-0 -1 2 1 -1 -1 -0 -0 -4 1 -1 -1 -2 1 -0 -2 -3 -2 -1 -3 -1 -1 -0 -1 -2 -0 -1 -1 -1 0 -1 -0 -2 1 -3 -0 -1 -1 -1 -3 -1 2 1
1 -0 0 0 -1 -1 -0 -1 -0 -2 -2 -0 -3 -0 -0 -1 -1 -4 -3 -2 -2 -1 -2 -2 -2 -1 -2 -2 -1 -0 -1 -1 -0 -1 1 -0 -1 -1 -0 -1 -1 0 0
2 3 0 1 -1 -0 -0 0 2 -0 -2 -1 -1 -2 -2 -0 -0 1 -2 -2 -2 -2 -3 -2 -1 -2 -2 1 -1 -1 0 -0 1 -1 0 -1 -0 -0 -1 -1 -1 -0 -1
3 2 -1 1 -1 -1 -1 0 2 2 0 -1 1 0 -1 -1 -1 -1 1 0 0 -2 -0 -1 0 -1 -2 -1 -1 -1 -2 -1 -1 0 -2 -1 -1 0 -1 -2 -2 -0 -1
-1 2 0 2 1 -2 -1 -1 2 1 1 1 -0 -0 -0 -1 -0 -1 1 -0 1 1 0 1 1 1 0 -0 -1 -0 -1 1 -1 -0 -3 -1 -2 -0 -1 -0 -1 -0 -0
2 1 1 1 2 1 1 -1 -1 1 -0 2 0 -1 -0 -0 2 0 -1 -1 -2 -2 -2 -2 -0 -0 -1 0 0 1 -0 1 -1 1 0 1 0 -0 -1 -0 -2 -0 0
-3 0 -1 3 1 0 -2 4 -2 -1 1 -1 1 0 -1 -3 -1 4 4 4 3 1 0 -2 -1 -1 -2 1 -1 1 -1 1 -1 -1 -2 -1 -1 -1 -2 -2 -2 -0 -2
8 2 -2 -2 2 0 -2 3 2 -2 -0 0 -0 0 2 -4 -0 -2 2 -2 3 1 3 4 1 -0 -1 0 -2 1 -1 -1 -0 -1 -1 -1 -1 0 -0 2 1 1 0
2 -1 1 -2 -0 -2 0 -1 5 3 -2 -1 -0 1 -1 2 -0 -2 -0 1 -2 -1 -1 -2 -1 3 1 1 1 0 -1 -2 -1 -0 -0 -0 -0 1 -1 -1 -2 -2 -2
15 8 -4 1 -1 -1 -1 -0 -0 3 4 1 -1 -2 -0 -2 0 1 -4 1 -0 2 -1 1 1 -3 -1 -2 -2 -2 -0 0 -2 -3 -1 -1 0 -0 -0 0 2 0 0
4 14 6 -1 -4 -0 2 -1 1 -1 -0 1 4 1 -0 0 1 -1 -1 -1 -0 0 1 -1 -0 0 2 2 1 2 2 -0 0 -1 -0 0 2 -1 0 0 -2 -1 -1
-36 -15 13 8 -7 -4 -1 2 -0 -0 -3 1 -3 1 2 -1 0 0 -0 -0 1 -0 1 0 3 1 -0 -1 -3 -2 -2 -1 -2 -2 0 1 2 1 -0 -1 -2 -3 -1
-11 -14 5 7 8 -2 0 1 -1 -0 -0 -1 -1 -1 -0 2 -1 -1 1 1 -1 1 -1 -0 -1 0 1 -1 0 -0 -2 -1 -1 0 -1 -2 -1 4 1 -1 1 -2 -1
6 9 -54 6 10 8 -2 1 -2 -2 -0 -4 0 -4 -0 -1 2 1 0 0 2 2 1 -1 0 0 1 -1 -2 1 -0 4 -3 3 4 2 2 1 4 -1 -0 0 -0
-2 -5 2 -4 6 2 10 -0 1 -1 1 -0 2 -1 1 0 -1 1 1 1 3 1 2 1 0 -1 -0 -1 -4 -4 -3 -1 -1 4 3 1 -1 -0 3 1 5 -2 -3
-1 -3 13 -7 7 3 1 -2 -2 -6 0 1 4 2 -1 1 -0 1 -1 -0 1 1 -0 -3 -1 -2 -2 1 2 -6 1 1 -3 -2 1 4 2 -0 -3 -1 -1 1 1
-3 -1 -2 8 -9 1 -0 1 2 7 2 0 -1 1 1 1 1 -2 2 -0 1 -1 -1 -0 -1 0 -1 -3 -1 1 -3 2 -1 -4 -3 3 1 2 -4 -5 -1 -3 1
7 -0 1 3 8 -4 -4 -10 -2 -4 -1 -3 2 -3 1 -4 -2 -2 1 -0 0 -1 -0 1 -1 -0 -2 1 2 -1 -3 1 1 0 -3 4 -0 1 -0 -1 1 -1 0
-3 -4 -4 -4 -2 -2 -5 -0 2 3 3 6 0 2 -1 1 4 1 4 0 -0 3 -2 -1 -1 -1 0 3 -1 4 -7 -9 -1 -2 -1 -0 -0 5 -1 -1 1 -3 -2
2 -1 -2 -5 -4 -9 -2 11 2 6 4 5 1 1 1 -1 3 -0 0 0 -1 1 -0 1 -0 0 -4 0 2 6 0 -1 0 -3 -2 -3 1 1 -3 2 -1 -5 -3
-10 5 1 6 -2 -1 -1 -5 -0 8 4 4 7 5 3 3 6 3 2 2 -1 -5 -1 2 2 -1 1 -1 1 4 5 3 -1 -3 1 6 3 2 2 1 -2 3 -3
5 -1 2 3 -1 0 5 8 8 -2 2 -11 5 9 2 2 5 7 6 3 1 1 0 -1 1 1 0 -1 2 -0 3 2 2 7 -5 -2 3 2 2 3 3 2 -1
8 2 -3 -2 1 3 3 3 7 2 4 3 3 4 6 -11 -6 -11 -3 -1 0 -2 -1 2 1 -1 1 -1 1 -0 0 1 -1 3 4 -5 4 1 1 -1 3 2 1
Height
1528 1531 1535 1537 1539 1542 1544 1545 1546 1547 1547 1548 1549 1550 1550 1552 1553 1554 1555 1555 1556 1557 1557 1558 1558 1559 1558 1558 1558 1558 1558 1558 1558 1558 1557 1558 1558 1557 1556 1555 1554 1553 1552
1526 1531 1534 1538 1540 1542 1544 1545 1547 1548 1549 1549 1549 1550 1551 1552 1554 1555 1557 1557 1558 1559 1559 1559 1560 1561 1561 1561 1561 1561 1561 1560 1560 1560 1560 1560 1559 1559 1558 1557 1556 1555 1554
1527 1532 1535 1538 1541 1542 1544 1545 1548 1549 1550 1550 1550 1551 1551 1553 1555 1556 1558 1558 1559 1560 1560 1562 1562 1563 1563 1563 1563 1563 1563 1563 1563 1563 1563 1562 1561 1560 1559 1558 1557 1556 1555
1528 1532 1536 1538 1540 1543 1545 1546 1548 1550 1551 1551 1552 1552 1552 1553 1555 1557 1558 1559 1560 1562 1563 1563 1564 1565 1565 1565 1565 1565 1565 1565 1565 1565 1565 1564 1563 1562 1560 1559 1558 1557 1556
1529 1532 1536 1538 1541 1544 1545 1547 1548 1550 1552 1552 1553 1553 1554 1555 1556 1558 1559 1561 1562 1563 1564 1565 1566 1567 1567 1567 1568 1568 1567 1567 1567 1567 1567 1566 1565 1564 1563 1561 1560 1559 1557
1530 1533 1536 1539 1542 1544 1546 1547 1549 1551 1552 1553 1554 1555 1556 1557 1559 1560 1561 1562 1564 1565 1566 1567 1568 1569 1569 1570 1570 1570 1570 1569 1569 1568 1568 1567 1567 1566 1565 1563 1562 1561 1559
1532 1534 1538 1540 1542 1544 1546 1548 1550 1552 1553 1554 1555 1557 1558 1559 1560 1562 1562 1563 1564 1566 1567 1568 1569 1570 1571 1571 1572 1572 1571 1571 1571 1570 1569 1568 1568 1567 1566 1565 1563 1562 1560
1533 1535 1539 1541 1543 1545 1547 1549 1551 1552 1554 1555 1557 1558 1559 1561 1562 1563 1564 1565 1566 1567 1568 1570 1571 1572 1572 1573 1573 1573 1573 1572 1572 1571 1570 1569 1568 1568 1567 1566 1564 1563 1562
1536 1536 1539 1541 1544 1545 1548 1549 1552 1553 1555 1557 1557 1559 1561 1562 1564 1565 1566 1567 1568 1569 1570 1571 1572 1573 1573 1573 1573 1573 1573 1572 1572 1571 1570 1570 1569 1569 1568 1567 1565 1564 1563
1537 1539 1540 1542 1544 1546 1549 1550 1552 1554 1556 1558 1559 1560 1561 1563 1565 1566 1567 1568 1569 1570 1571 1571 1572 1573 1573 1574 1574 1574 1573 1573 1572 1572 1571 1571 1570 1569 1568 1567 1566 1565 1563
1537 1539 1541 1543 1544 1547 1549 1552 1552 1554 1557 1558 1559 1560 1562 1563 1565 1567 1568 1569 1570 1570 1571 1572 1572 1573 1573 1573 1573 1573 1573 1572 1572 1571 1571 1570 1570 1569 1568 1567 1566 1565 1563
1536 1538 1541 1543 1544 1546 1549 1552 1554 1553 1556 1558 1560 1561 1562 1563 1565 1566 1568 1569 1570 1570 1571 1572 1572 1573 1573 1573 1573 1573 1573 1572 1571 1571 1571 1570 1569 1568 1567 1566 1565 1564 1563
1539 1538 1540 1542 1545 1547 1549 1552 1554 1555 1556 1558 1559 1561 1561 1563 1564 1565 1567 1568 1569 1569 1570 1571 1571 1572 1572 1572 1572 1572 1572 1572 1571 1570 1570 1569 1568 1568 1567 1565 1564 1563 1562
1537 1541 1540 1542 1545 1548 1549 1552 1554 1555 1557 1558 1559 1559 1561 1562 1564 1564 1565 1566 1567 1569 1569 1569 1570 1570 1571 1571 1571 1571 1571 1571 1571 1570 1569 1569 1568 1567 1566 1564 1563 1562 1561
1536 1540 1541 1541 1544 1547 1549 1551 1553 1554 1556 1558 1559 1560 1560 1561 1562 1563 1563 1565 1566 1567 1568 1569 1569 1569 1569 1569 1570 1570 1570 1570 1569 1569 1568 1567 1566 1565 1564 1563 1562 1560 1559
1524 1534 1538 1541 1543 1546 1548 1549 1551 1553 1554 1556 1557 1559 1560 1560 1560 1561 1563 1563 1564 1565 1566 1567 1568 1568 1568 1568 1568 1568 1569 1569 1568 1568 1567 1566 1565 1563 1563 1561 1560 1559 1558
1529 1528 1535 1541 1543 1544 1546 1547 1549 1551 1552 1553 1555 1556 1558 1559 1561 1560 1561 1563 1563 1564 1564 1566 1566 1567 1567 1566 1567 1567 1567 1567 1567 1565 1564 1563 1563 1562 1559 1557 1557 1556 1555
1525 1528 1533 1535 1539 1541 1541 1544 1547 1549 1551 1552 1554 1555 1557 1558 1559 1560 1560 1561 1563 1563 1564 1564 1565 1565 1565 1565 1565 1565 1564 1564 1563 1563 1561 1560 1559 1558 1556 1555 1555 1554 1553
1522 1525 1526 1529 1535 1537 1539 1541 1545 1547 1548 1550 1552 1553 1554 1556 1556 1557 1559 1560 1561 1562 1563 1563 1564 1564 1564 1563 1562 1562 1561 1560 1558 1557 1557 1556 1554 1553 1553 1552 1551 1551 1549
1519 1522 1525 1528 1532 1536 1538 1541 1543 1544 1545 1546 1548 1550 1552 1553 1554 1555 1556 1557 1559 1560 1561 1561 1561 1561 1560 1560 1560 1558 1557 1556 1555 1553 1552 1551 1549 1549 1550 1550 1549 1548 1546
1516 1520 1523 1527 1528 1533 1535 1537 1538 1539 1542 1542 1544 1546 1549 1551 1552 1553 1554 1555 1557 1557 1558 1558 1558 1558 1558 1557 1556 1554 1553 1552 1550 1549 1547 1546 1546 1547 1546 1546 1546 1545 1544
1513 1517 1521 1524 1526 1527 1528 1531 1533 1537 1539 1540 1542 1543 1545 1548 1549 1550 1551 1552 1553 1554 1554 1555 1554 1554 1553 1553 1552 1549 1546 1546 1546 1543 1543 1541 1543 1543 1543 1543 1543 1542 1542
1511 1512 1515 1517 1521 1522 1527 1530 1530 1534 1536 1537 1538 1540 1541 1544 1546 1547 1548 1549 1550 1550 1550 1550 1550 1549 1548 1548 1547 1547 1544 1542 1541 1542 1541 1540 1541 1540 1540 1540 1540 1539 1538
1508 1510 1512 1514 1516 1520 1523 1526 1526 1527 1530 1533 1535 1537 1538 1540 1543 1545 1546 1545 1545 1546 1546 1546 1545 1545 1543 1542 1542 1541 1540 1540 1540 1538 1538 1539 1538 1537 1537 1537 1536 1534 1534
1505 1507 1510 1514 1517 1518 1519 1521 1521 1523 1527 1531 1533 1531 1533 1535 1538 1542 1543 1541 1541 1542 1542 1542 1541 1540 1538 1537 1536 1536 1535 1534 1534 1534 1533 1535 1535 1534 1534 1533 1532 1532 1530
1500 1502 1506 1511 1513 1513 1514 1515 1516 1520 1522 1524 1526 1529 1529 1529 1535 1537 1538 1538 1538 1537 1538 1537 1536 1534 1532 1530 1530 1530 1530 1530 1528 1529 1529 1529 1530 1529 1528 1528 1529 1528 1527